GW3616 Weather Reports


time (UTC)temp
F
wind
direction
speed
knots
gust
knots
rain 1hr
in
rain 24hr
in
rain mn
in
humidity
%
barometer
mb
20260505102003 45 9 0.9 3.5 0.00 0.00 0.00 86 1006.8
20260505101455 44 1 1.7 2.6 0.00 0.00 0.00 87 1006.6
20260505100952 44 337 2.6 3.5 0.00 0.00 0.00 87 1006.7
20260505100450 44 329 2.6 2.6 0.00 0.00 0.00 87 1006.7
20260505095945 44 9 1.7 2.6 0.00 0.00 0.00 87 1006.6
20260505095442 44 320 2.6 3.5 0.00 0.00 0.00 87 1006.4
20260505094938 44 293 2.6 4.3 0.00 0.00 0.00 87 1006.6
20260505094435 44 297 2.6 3.5 0.00 0.00 0.00 87 1006.4
20260505093931 44 32 0.9 0.9 0.00 0.00 0.00 87 1006.1
20260505093428 44 24 0.9 2.6 0.00 0.00 0.00 87 1006.0
20260505092925 44 55 0.0 0.0 0.00 0.00 0.00 87 1005.8
20260505092423 45 20 0.9 3.5 0.00 0.00 0.00 86 1005.8
20260505091920 45 326 2.6 3.5 0.00 0.00 0.00 86 1005.6
20260505091418 45 328 3.5 7.8 0.00 0.00 0.00 85 1005.7
20260505090916 46 306 6.1 7.0 0.00 0.00 0.00 83 1005.4
20260505090414 46 303 5.2 7.0 0.00 0.00 0.00 82 1005.5
20260505085911 47 314 5.2 7.0 0.00 0.00 0.00 80 1005.3
20260505085409 47 309 3.5 5.2 0.00 0.00 0.00 79 1005.1
20260505084907 48 287 3.5 7.0 0.00 0.00 0.00 77 1004.8
20260505084405 48 302 3.5 4.3 0.00 0.00 0.00 76 1004.7
20260505083903 49 302 6.1 7.0 0.00 0.00 0.00 74 1004.5
20260505083400 49 304 5.2 7.0 0.00 0.00 0.00 73 1004.7
20260505082855 49 299 2.6 4.3 0.00 0.00 0.00 72 1004.7
20260505082352 50 264 4.3 5.2 0.00 0.00 0.00 71 1004.3
20260505081849 50 320 3.5 7.8 0.00 0.00 0.00 69 1004.3
20260505081345 50 351 6.1 8.7 0.00 0.00 0.00 68 1004.3
20260505080842 51 299 6.1 7.8 0.00 0.00 0.00 67 1004.3
20260505080338 51 300 3.5 7.0 0.00 0.00 0.00 66 1004.0
20260505075834 51 318 1.7 3.5 0.00 0.00 0.00 65 1004.1
20260505075330 52 309 5.2 7.0 0.00 0.00 0.00 64 1004.3
20260505074828 52 298 2.6 4.3 0.00 0.00 0.00 62 1004.3
20260505074325 53 291 5.2 7.0 0.00 0.00 0.00 61 1003.9
20260505073822 53 304 3.5 5.2 0.00 0.00 0.00 60 1004.1
20260505073320 53 321 2.6 7.8 0.00 0.00 0.00 59 1004.0
20260505072817 53 303 4.3 5.2 0.00 0.00 0.00 59 1004.0
20260505072313 53 304 5.2 7.0 0.00 0.00 0.00 59 1003.9
20260505071809 54 0 1.7 8.7 0.00 0.00 0.00 59 1003.8
20260505071305 54 333 2.6 7.8 0.00 0.00 0.00 58 1003.6
20260505070803 54 303 5.2 7.0 0.00 0.00 0.00 58 1003.7
20260505070254 54 7 6.1 9.6 0.00 0.00 0.00 59 1003.8
20260505065749 54 322 6.1 9.6 0.00 0.00 0.00 57 1003.6
20260505065246 54 328 7.8 9.6 0.00 0.00 0.00 57 1003.6
20260505064743 54 351 9.6 15.6 0.00 0.00 0.00 58 1003.8
20260505064241 54 339 5.2 7.8 0.00 0.00 0.00 59 1003.9
20260505063738 54 324 4.3 8.7 0.00 0.00 0.00 60 1004.1
20260505063234 54 351 1.7 5.2 0.00 0.00 0.00 59 1003.3
20260505062731 54 316 4.3 7.0 0.00 0.00 0.00 62 1003.6
20260505062229 54 290 6.1 8.7 0.00 0.00 0.00 63 1003.5
20260505061725 54 293 2.6 4.3 0.00 0.00 0.00 68 1003.5
20260505061224 52 299 4.3 7.8 0.00 0.00 0.00 76 1003.6
20260505060721 52 262 2.6 3.5 0.00 0.00 0.00 82 1003.4
20260505060217 51 270 3.5 3.5 0.00 0.00 0.00 87 1003.5
20260505055713 51 310 2.6 2.6 0.00 0.00 0.00 89 1003.2
20260505055209 51 352 0.9 0.9 0.00 0.00 0.00 90 1003.2
20260505054707 52 255 2.6 4.3 0.00 0.00 0.00 90 1003.3
20260505054205 52 210 3.5 4.3 0.00 0.00 0.00 89 1003.2
20260505053703 52 207 2.6 3.5 0.00 0.00 0.00 88 1003.2
20260505053158 53 245 3.5 3.5 0.00 0.00 0.00 87 1003.2
20260505052655 53 288 1.7 2.6 0.00 0.00 0.00 86 1003.2
20260505052147 53 332 0.9 2.6 0.00 0.00 0.00 86 1003.0
20260505051643 52 294 2.6 4.3 0.00 0.00 0.00 88 1002.8
20260505051142 52 295 3.5 4.3 0.00 0.00 0.00 88 1003.0
20260505050639 52 0 1.7 2.6 0.00 0.00 0.00 88 1002.8
20260505050138 52 291 2.6 3.5 0.00 0.00 0.00 88 1002.8
20260505041607 53 146 0.9 3.5 0.00 0.00 0.00 88 1002.4
20260505041104 53 152 3.5 3.5 0.00 0.00 0.00 87 1002.4
20260505040601 53 91 0.9 0.9 0.00 0.00 0.00 86 1002.3
20260505040058 53 89 0.9 2.6 0.00 0.00 0.00 86 1002.0
20260505035554 53 86 0.0 0.0 0.00 0.00 0.00 86 1002.4
20260505035051 54 180 0.9 2.6 0.00 0.00 0.00 86 1002.1
20260505034548 54 216 2.6 3.5 0.00 0.00 0.00 85 1002.1
20260505034044 54 217 4.3 5.2 0.00 0.00 0.00 85 1002.5
20260505033541 55 244 4.3 7.8 0.00 0.00 0.00 84 1002.4
20260505033040 54 269 5.2 7.8 0.00 0.00 0.00 84 1002.0
20260505032537 54 278 7.0 11.3 0.00 0.00 0.00 83 1002.3
20260505032033 54 281 12.2 13.9 0.00 0.00 0.00 82 1002.4
20260505031531 54 263 8.7 11.3 0.00 0.00 0.00 83 1002.4
20260505031027 56 266 8.7 9.6 0.00 0.00 0.00 81 1002.0
20260505030524 57 280 11.3 13.9 0.00 0.00 0.00 79 1001.7
20260505030020 57 299 13.0 13.9 0.00 0.00 0.00 79 1001.9
20260505025516 57 264 7.0 8.7 0.00 0.00 0.00 80 1001.2
20260505025015 58 254 7.8 11.3 0.00 0.00 0.00 79 1001.1
20260505024511 60 253 9.6 11.3 0.00 0.00 0.00 75 1001.0
20260505024009 62 273 9.6 15.6 0.00 0.00 0.00 73 1001.4
20260505023506 63 232 13.0 17.4 0.00 0.00 0.00 70 1000.6
20260505023003 64 246 10.4 15.6 0.00 0.00 0.00 68 1001.1
20260505022501 64 239 13.0 18.2 0.00 0.00 0.00 68 1000.8
20260505021958 64 217 7.8 20.0 0.00 0.00 0.00 67 1000.3
20260505021454 64 218 13.9 25.2 0.00 0.00 0.00 64 999.9
20260505020950 65 214 15.6 17.4 0.00 0.00 0.00 61 1000.2
20260505020445 64 220 19.1 24.3 0.00 0.00 0.00 59 1000.1
20260505015942 64 238 11.3 16.5 0.00 0.00 0.00 62 1000.1
20260505015440 64 213 11.3 16.5 0.00 0.00 0.00 63 1000.1
20260505014937 64 233 8.7 13.9 0.00 0.00 0.00 64 1000.0
20260505014433 65 224 13.9 17.4 0.00 0.00 0.00 64 1000.1
20260505013931 65 214 11.3 17.4 0.00 0.00 0.00 64 1000.0
20260505013428 65 196 10.4 20.0 0.00 0.00 0.00 66 999.9
20260505012925 65 202 13.0 20.9 0.00 0.00 0.00 66 1000.0
20260505012423 66 213 14.8 20.0 0.00 0.00 0.00 67 999.7
20260505011919 66 199 15.6 20.9 0.00 0.00 0.00 66 999.7
20260505011416 66 218 17.4 22.6 0.00 0.00 0.00 66 999.5
20260505010913 67 217 13.9 25.2 0.00 0.00 0.00 66 999.6
20260505010408 68 231 10.4 20.9 0.00 0.00 0.00 65 999.3
20260505005904 68 201 9.6 17.4 0.00 0.00 0.00 64 999.4
20260505005401 68 223 17.4 20.0 0.00 0.00 0.00 63 999.6
20260505004859 68 185 12.2 20.0 0.00 0.00 0.00 62 999.3
20260505004355 69 246 10.4 26.9 0.00 0.00 0.00 61 999.5
20260505003852 69 223 11.3 16.5 0.00 0.00 0.00 61 999.5
20260505003350 70 222 13.9 21.7 0.00 0.00 0.00 60 999.5
20260505002845 70 201 14.8 18.2 0.00 0.00 0.00 57 999.4
20260505002342 71 234 11.3 17.4 0.00 0.00 0.00 52 999.2
20260505001841 71 194 7.8 17.4 0.00 0.00 0.00 48 999.1
20260505001337 72 191 6.1 13.9 0.00 0.00 0.00 46 999.1
20260505000835 72 193 13.0 20.9 0.00 0.00 0.00 42 999.0
20260505000332 73 195 8.7 22.6 0.00 0.00 0.00 43 998.7
20260504235829 73 219 7.0 9.6 0.00 0.00 0.00 44 998.8
20260504235326 73 206 6.1 9.6 0.00 0.00 0.00 44 998.8
20260504234823 73 200 6.1 13.9 0.00 0.00 0.00 43 998.8
20260504234320 73 228 7.8 11.3 0.00 0.00 0.00 43 998.8
20260504233817 73 210 7.8 12.2 0.00 0.00 0.00 42 998.8
20260504233312 74 220 9.6 12.2 0.00 0.00 0.00 42 998.9
20260504232809 74 213 11.3 13.9 0.00 0.00 0.00 41 999.0
20260504232307 74 220 8.7 11.3 0.00 0.00 0.00 41 999.4
20260504231803 74 223 9.6 12.2 0.00 0.00 0.00 42 999.5
20260504231300 74 220 7.8 9.6 0.00 0.00 0.00 43 999.2
20260504230756 74 236 8.7 13.0 0.00 0.00 0.00 42 999.7
20260504230254 74 234 7.0 13.0 0.00 0.00 0.00 42 999.7
20260504225753 74 192 10.4 13.0 0.00 0.00 0.00 43 999.7
20260504225248 74 217 8.7 9.6 0.00 0.00 0.00 43 1000.0
20260504224745 74 211 9.6 13.9 0.00 0.00 0.00 42 1000.0
20260504224243 73 229 13.0 13.9 0.00 0.00 0.00 41 1000.4
20260504223739 73 182 7.0 13.0 0.00 0.00 0.00 44 1000.4
20260504223234 74 232 11.3 12.2 0.00 0.00 0.00 42 1000.4
20260504222732 74 217 13.0 15.6 0.00 0.00 0.00 43 1000.6
20260504222229 74 213 10.4 13.9 0.00 0.00 0.00 43 1000.4
20260504221726 74 227 12.2 16.5 0.00 0.00 0.00 42 1000.6
20260504221223 74 234 7.8 12.2 0.00 0.00 0.00 45 1000.6
20260504220720 74 226 10.4 15.6 0.00 0.00 0.00 43 1000.6
20260504220217 74 213 13.0 13.9 0.00 0.00 0.00 41 1000.6
20260504215714 74 211 11.3 20.0 0.00 0.00 0.00 44 1000.7
20260504215211 73 216 13.0 17.4 0.00 0.00 0.00 41 1000.8
20260504214706 73 234 15.6 18.2 0.00 0.00 0.00 43 1000.8
20260504214203 73 212 9.6 15.6 0.00 0.00 0.00 46 1000.9
20260504213700 73 201 13.0 20.0 0.00 0.00 0.00 45 1000.9
20260504213156 73 196 9.6 12.2 0.00 0.00 0.00 47 1001.0
20260504212653 73 228 13.9 18.2 0.00 0.00 0.00 46 1001.0
20260504212150 73 234 11.3 16.5 0.00 0.00 0.00 47 1001.2
20260504211647 73 233 10.4 18.2 0.00 0.00 0.00 48 1001.2
20260504211143 73 217 15.6 21.7 0.00 0.00 0.00 47 1000.9
20260504210641 73 229 15.6 18.2 0.00 0.00 0.00 47 1001.4
20260504210137 73 219 13.9 20.0 0.00 0.00 0.00 47 1001.3
20260504205635 73 234 15.6 17.4 0.00 0.00 0.00 47 1001.6
20260504205132 73 246 15.6 20.0 0.00 0.00 0.00 48 1001.6
20260504204631 73 221 14.8 20.9 0.00 0.00 0.00 48 1001.5
20260504204129 73 212 10.4 22.6 0.00 0.00 0.00 51 1001.7
20260504203628 73 225 15.6 20.0 0.00 0.00 0.00 52 1001.8
20260504203125 72 196 7.8 18.2 0.00 0.00 0.00 51 1001.7
20260504202625 72 236 13.0 18.2 0.00 0.00 0.00 52 1002.1
20260504202122 72 217 14.8 17.4 0.00 0.00 0.00 52 1001.8
20260504201619 72 212 23.5 26.1 0.00 0.00 0.00 50 1001.9
20260504201117 72 225 16.5 20.0 0.00 0.00 0.00 52 1002.1
20260504200614 72 214 15.6 18.2 0.00 0.00 0.00 51 1002.0
20260504200110 71 207 15.6 20.9 0.00 0.00 0.00 52 1002.3
20260504195606 71 223 20.9 22.6 0.00 0.00 0.00 52 1002.1
20260504195102 71 234 16.5 21.7 0.00 0.00 0.00 53 1002.3
20260504194600 71 222 13.0 20.0 0.00 0.00 0.00 52 1002.5
20260504194055 71 175 13.0 18.2 0.00 0.00 0.00 54 1002.4
20260504193552 71 217 17.4 18.2 0.00 0.00 0.00 53 1002.5
20260504193050 71 228 13.0 20.9 0.00 0.00 0.00 53 1002.6
20260504192548 71 219 20.9 21.7 0.00 0.00 0.00 51 1002.7
20260504192046 70 222 18.2 22.6 0.00 0.00 0.00 53 1002.6
20260504191544 71 226 17.4 24.3 0.00 0.00 0.00 51 1002.6
20260504191039 71 208 13.0 18.2 0.00 0.00 0.00 53 1002.5
20260504190536 71 232 17.4 22.6 0.00 0.00 0.00 52 1002.7
20260504190032 70 246 18.2 20.9 0.00 0.00 0.00 52 1002.8
20260504185530 70 199 15.6 21.7 0.00 0.00 0.00 52 1002.7
20260504185026 70 227 14.8 22.6 0.00 0.00 0.00 50 1002.8
20260504184521 70 234 14.8 20.9 0.00 0.00 0.00 51 1002.9
20260504184017 70 229 18.2 25.2 0.00 0.00 0.00 46 1002.9
20260504183514 70 208 13.9 16.5 0.00 0.00 0.00 47 1002.8
20260504183013 70 223 17.4 20.9 0.00 0.00 0.00 46 1002.8
20260504182509 70 251 15.6 17.4 0.00 0.00 0.00 48 1003.0
20260504182006 70 231 16.5 22.6 0.00 0.00 0.00 49 1002.9
20260504181503 69 244 15.6 17.4 0.00 0.00 0.00 50 1002.7
20260504181002 69 237 13.0 20.0 0.00 0.00 0.00 50 1002.8
20260504180500 69 240 13.0 20.9 0.00 0.00 0.00 47 1002.7
20260504175958 70 241 11.3 17.4 0.00 0.00 0.00 48 1003.0
20260504175455 70 223 13.9 16.5 0.00 0.00 0.00 49 1003.0
20260504174952 69 235 13.9 18.2 0.00 0.00 0.00 47 1002.7
20260504174450 70 238 18.2 20.9 0.00 0.00 0.00 43 1003.0
20260504173947 70 237 17.4 20.0 0.00 0.00 0.00 44 1003.4
20260504173443 69 243 18.2 18.2 0.00 0.00 0.00 45 1003.3
20260504172941 69 228 15.6 20.9 0.00 0.00 0.00 44 1003.5
20260504172437 69 233 16.5 20.0 0.00 0.00 0.00 44 1003.4
20260504171934 69 210 8.7 18.2 0.00 0.00 0.00 46 1003.5
20260504171431 69 233 13.0 16.5 0.00 0.00 0.00 46 1003.5
20260504170928 68 231 15.6 20.9 0.00 0.00 0.00 45 1003.6
20260504170424 68 232 17.4 20.0 0.00 0.00 0.00 44 1003.6
20260504160343 66 243 15.6 20.0 0.00 0.00 0.00 49 1004.2
20260504150808 62 213 12.2 15.6 0.00 0.00 0.00 58 1004.8
20260504150304 62 221 13.9 16.5 0.00 0.00 0.00 58 1004.8
20260504141234 59 213 9.6 13.0 0.00 0.00 0.00 67 1005.2
20260504140731 59 217 12.2 13.9 0.00 0.00 0.00 67 1005.3
20260504140226 59 212 8.7 12.2 0.00 0.00 0.00 68 1005.4
20260504130655 56 218 9.6 13.0 0.00 0.00 0.00 74 1005.9
20260504130151 56 217 9.6 11.3 0.00 0.00 0.00 75 1006.3
20260504120115 53 221 7.8 12.2 0.00 0.00 0.00 79 1006.1
20260504110543 50 232 6.1 7.0 0.00 0.00 0.00 83 1005.4